Weather History for Guymon, OK

Change the Weather History Date:

Monday, July 16, 2012

  Actual Average Record
Temperature  
Mean Temperature 84 °F 80 °F  
Max Temperature 99 °F 95 °F 105 °F (2000)
Min Temperature 68 °F 66 °F 60 °F (2014)
Degree Days  
Heating Degree Days 0 0  
Month to date heating degree days 0 0  
Since 1 June heating degree days 0 8  
Since 1 July heating degree days 0 0  
Cooling Degree Days 19 15  
Month to date cooling degree days 271 230  
Year to date cooling degree days 1005 618  
Since 1 June cooling degree days 740 510  
Growing Degree Days 34 (Base 50)    
Moisture  
Dew Point 54 °F    
Average Humidity 40    
Maximum Humidity 63    
Minimum Humidity 17    
Precipitation  
Precipitation 0.00 in 0.09 in 0.45 in (2014)
Month to date precipitation 1.23 1.37  
Year to date precipitation 7.32 10.56  
Snow  
Snow 0.00 in - - ()
Month to date snowfall 0.0  
Since 1 June snowfall 0.0  
Since 1 July snowfall 0.0  
Snow Depth 0.00 in    
Sea Level Pressure  
Sea Level Pressure 29.74 in    
Wind  
Wind Speed 11 mph (SSE)    
Max Wind Speed 25 mph    
Max Gust Speed 32 mph    
Visibility 10 miles    
Events      
T = Trace of Precipitation, MM = Missing Value Source: NWS Daily Summary

Daily Weather History Graph

Daily Weather History Graph

Search for Another Location

Airport:

Trip Planner

Search our weather history database for the weather conditions in past years. The results will help you decide how hot, cold, wet, or windy it might be!

Date:

Astronomy

Jul. 16, 2012 Rise Set
Actual Time 6:40 AM CDT 9:03 PM CDT
Civil Twilight 6:10 AM CDT 9:33 PM CDT
Nautical Twilight 5:33 AM CDT 10:10 PM CDT
Astronomical Twilight 4:53 AM CDT 10:50 PM CDT
Moon 4:26 AM CDT (7/16) 7:10 PM CDT (7/16)
Length of Visible Light 15h 23m
Length of Day
14h 23m
Waning Crescent, 6% of the Moon is Illuminated
Jul 16
Waning Crescent
Jul 18
New
Jul 26
First Quarter
Aug 1
Full
Aug 9
Last Quarter

Hourly Weather History & Observations

Time (CDT) Temp. Heat Index Dew Point Humidity Pressure Visibility Wind Dir Wind Speed Gust Speed Precip Events Conditions
12:53 AM 77.0 °F - 55.9 °F 48% 29.83 in 10.0 mi SSE 9.2 mph - N/A   Clear
1:53 AM 75.9 °F - 57.0 °F 52% 29.82 in 10.0 mi South 9.2 mph - N/A   Clear
2:53 AM 75.9 °F - 57.0 °F 52% 29.81 in 10.0 mi South 9.2 mph - N/A   Clear
3:53 AM 73.9 °F - 57.9 °F 57% 29.81 in 10.0 mi South 11.5 mph - N/A   Clear
4:53 AM 72.0 °F - 57.9 °F 61% 29.80 in 10.0 mi South 10.4 mph - N/A   Scattered Clouds
5:53 AM 71.1 °F - 57.0 °F 61% 29.79 in 10.0 mi South 10.4 mph - N/A   Clear
6:53 AM 68.0 °F - 55.9 °F 65% 29.79 in 10.0 mi South 10.4 mph - N/A   Clear
7:53 AM 71.1 °F - 55.9 °F 59% 29.79 in 10.0 mi SSW 9.2 mph - N/A   Clear
8:53 AM 78.1 °F - 57.0 °F 48% 29.79 in 10.0 mi South 10.4 mph - N/A   Partly Cloudy
9:53 AM 82.9 °F 82.4 °F 57.0 °F 41% 29.79 in 10.0 mi South 9.2 mph - N/A   Clear
10:53 AM 84.0 °F 82.9 °F 55.0 °F 37% 29.78 in 10.0 mi SSE 6.9 mph - N/A   Clear
11:53 AM 89.1 °F 86.7 °F 53.1 °F 29% 29.78 in 10.0 mi South 5.8 mph - N/A   Clear
12:53 PM 93.0 °F 91.1 °F 55.0 °F 28% 29.75 in 10.0 mi Variable 6.9 mph - N/A   Clear
1:53 PM 95.0 °F 92.5 °F 53.1 °F 24% 29.73 in 10.0 mi ESE 8.1 mph - N/A   Clear
2:53 PM 96.1 °F - 50.0 °F 21% 29.70 in 9.0 mi South 11.5 mph - N/A   Clear
3:53 PM 97.0 °F - 48.0 °F 19% 29.68 in 10.0 mi SSE 8.1 mph 17.3 mph N/A   Clear
4:53 PM 99.0 °F - 48.9 °F 18% 29.65 in 10.0 mi SSE 10.4 mph - N/A   Partly Cloudy
5:53 PM 98.1 °F - 46.9 °F 18% 29.64 in 10.0 mi SSE 8.1 mph - N/A   Clear
6:53 PM 91.9 °F - 52.0 °F 26% 29.65 in 10.0 mi SSE 16.1 mph 27.6 mph N/A   Partly Cloudy
7:53 PM 90.0 °F 87.5 °F 53.1 °F 28% 29.67 in 10.0 mi SSE 19.6 mph 28.8 mph N/A   Clear
8:53 PM 84.9 °F - 52.0 °F 32% 29.68 in 10.0 mi South 17.3 mph 24.2 mph N/A   Clear
9:53 PM 82.0 °F 81.3 °F 54.0 °F 38% 29.69 in 10.0 mi SSE 11.5 mph 19.6 mph N/A   Clear
10:53 PM 81.0 °F 80.8 °F 55.9 °F 42% 29.72 in 10.0 mi South 12.7 mph - N/A   Clear
11:53 PM 79.0 °F - 57.9 °F 48% 29.73 in 10.0 mi South 13.8 mph 23.0 mph N/A   Partly Cloudy